Time,TemperatureF,DewpointF,PressureIn,WindDirection,WindDirectionDegrees,WindSpeedMPH,WindSpeedGustMPH,Humidity,HourlyPrecipIn,Conditions,Clouds,dailyrainin,SoftwareType,DateUTC
2013-06-28 00:05:00,72.5,54.4,29.06,North,0,0.0,0.0,53,0.00,,,0.00,VWS V13.01,2013-06-28 04:05:00,
2013-06-28 00:10:00,72.3,54.2,29.06,SW,229,0.0,2.7,53,0.00,,,0.00,VWS V13.01,2013-06-28 04:10:00,
2013-06-28 00:15:00,72.3,54.8,29.06,NNW,328,0.0,2.2,54,0.00,,,0.00,VWS V13.01,2013-06-28 04:15:00,
2013-06-28 00:20:00,72.1,54.6,29.06,NNW,328,0.0,0.0,54,0.00,,,0.00,VWS V13.01,2013-06-28 04:20:00,
2013-06-28 00:25:00,72.1,54.6,29.06,NNW,328,0.0,0.0,54,0.00,,,0.00,VWS V13.01,2013-06-28 04:25:00,
2013-06-28 00:35:00,72.0,54.9,29.06,NNW,328,0.0,0.0,55,0.00,,,0.00,VWS V13.01,2013-06-28 04:35:00,
2013-06-28 00:45:00,71.8,55.3,29.06,NNW,328,0.0,0.0,56,0.00,,,0.00,VWS V13.01,2013-06-28 04:45:00,
2013-06-28 00:55:00,71.6,55.1,29.06,NNW,328,0.0,0.0,56,0.00,,,0.00,VWS V13.01,2013-06-28 04:55:00,
2013-06-28 01:00:00,71.4,55.4,29.06,NNW,328,0.0,0.0,57,0.00,,,0.04,VWS V13.01,2013-06-28 05:00:00,
2013-06-28 01:05:00,71.4,55.4,29.06,NNW,328,0.0,0.0,57,0.00,,,0.00,VWS V13.01,2013-06-28 05:05:00,
2013-06-28 01:10:00,71.4,55.9,29.06,NNE,23,0.0,3.1,58,0.00,,,0.00,VWS V13.01,2013-06-28 05:10:00,
2013-06-28 01:15:00,71.4,55.9,29.03,NNE,23,0.0,0.0,58,0.00,,,0.00,VWS V13.01,2013-06-28 05:15:00,
2013-06-28 01:20:00,71.2,55.7,29.03,NNE,23,0.0,0.0,58,0.00,,,0.00,VWS V13.01,2013-06-28 05:20:00,
2013-06-28 01:25:00,71.2,56.2,29.03,NNE,23,0.0,0.0,59,0.00,,,0.00,VWS V13.01,2013-06-28 05:25:00,
2013-06-28 01:30:00,71.1,56.0,29.03,NNE,23,0.0,0.0,59,0.00,,,0.00,VWS V13.01,2013-06-28 05:30:00,
2013-06-28 01:35:00,71.1,56.0,29.03,NNE,23,0.0,0.0,59,0.00,,,0.00,VWS V13.01,2013-06-28 05:35:00,
2013-06-28 01:40:00,70.9,55.8,29.03,NNE,23,0.0,0.0,59,0.00,,,0.00,VWS V13.01,2013-06-28 05:40:00,
2013-06-28 01:45:00,70.9,56.3,29.03,NNE,23,0.0,0.0,60,0.00,,,0.00,VWS V13.01,2013-06-28 05:45:00,
2013-06-28 01:50:00,70.9,56.3,29.03,NNE,23,0.0,0.0,60,0.00,,,0.00,VWS V13.01,2013-06-28 05:50:00,
2013-06-28 01:55:00,70.9,56.3,29.03,NNE,23,0.0,0.0,60,0.00,,,0.00,VWS V13.01,2013-06-28 05:55:00,
2013-06-28 02:00:00,70.7,56.2,29.00,NNE,23,0.0,0.0,60,0.00,,,0.00,VWS V13.01,2013-06-28 06:00:00,
2013-06-28 02:05:00,70.7,56.6,29.00,NNE,23,0.0,0.0,61,0.00,,,0.00,VWS V13.01,2013-06-28 06:05:00,
2013-06-28 02:10:00,70.5,56.4,29.00,NNE,23,0.0,0.0,61,0.00,,,0.00,VWS V13.01,2013-06-28 06:10:00,
2013-06-28 02:15:00,70.5,56.4,29.00,NNE,23,0.0,2.2,61,0.00,,,0.00,VWS V13.01,2013-06-28 06:15:00,
2013-06-28 02:20:00,70.5,56.4,29.00,NNE,23,0.0,2.2,61,0.00,,,0.00,VWS V13.01,2013-06-28 06:20:00,
2013-06-28 02:25:00,70.5,56.4,29.00,NNE,23,0.0,0.0,61,0.00,,,0.00,VWS V13.01,2013-06-28 06:25:00,
2013-06-28 02:30:00,70.5,56.4,29.03,North,357,0.0,2.7,61,0.00,,,0.00,VWS V13.01,2013-06-28 06:30:00,
2013-06-28 02:35:00,70.5,56.9,29.03,WSW,244,0.0,4.0,62,0.00,,,0.00,VWS V13.01,2013-06-28 06:35:00,
2013-06-28 02:40:00,70.5,56.9,29.03,WSW,244,0.0,0.0,62,0.00,,,0.00,VWS V13.01,2013-06-28 06:40:00,
2013-06-28 02:45:00,70.3,56.7,29.03,NW,312,0.0,0.0,62,0.00,,,0.00,VWS V13.01,2013-06-28 06:45:00,
2013-06-28 02:50:00,70.3,56.7,29.03,NW,312,0.0,0.0,62,0.00,,,0.00,VWS V13.01,2013-06-28 06:50:00,
2013-06-28 02:55:00,70.3,56.7,29.03,NW,312,0.0,0.0,62,0.00,,,0.00,VWS V13.01,2013-06-28 06:55:00,
2013-06-28 03:00:00,70.2,56.5,29.03,NW,312,0.0,0.0,62,0.00,,,0.00,VWS V13.01,2013-06-28 07:00:00,
2013-06-28 03:05:00,70.2,56.5,29.03,NW,312,0.0,0.0,62,0.00,,,0.00,VWS V13.01,2013-06-28 07:05:00,
2013-06-28 03:10:00,70.2,56.5,29.03,NW,312,0.0,0.0,62,0.00,,,0.00,VWS V13.01,2013-06-28 07:10:00,
2013-06-28 03:15:00,70.2,57.0,29.03,NW,312,0.0,0.0,63,0.00,,,0.00,VWS V13.01,2013-06-28 07:15:00,
2013-06-28 03:20:00,70.2,57.0,29.03,NW,312,0.0,0.0,63,0.00,,,0.00,VWS V13.01,2013-06-28 07:20:00,
2013-06-28 03:25:00,70.2,57.0,29.03,NW,312,0.0,0.0,63,0.00,,,0.00,VWS V13.01,2013-06-28 07:25:00,
2013-06-28 03:30:00,70.2,57.0,29.03,NW,312,0.0,0.0,63,0.00,,,0.00,VWS V13.01,2013-06-28 07:30:00,
2013-06-28 03:35:00,70.9,58.1,29.03,North,353,0.0,3.6,64,0.00,,,0.00,VWS V13.01,2013-06-28 07:35:00,
2013-06-28 03:40:00,71.1,58.3,29.03,NNE,27,0.0,3.6,64,0.00,,,0.00,VWS V13.01,2013-06-28 07:40:00,
2013-06-28 03:45:00,71.2,58.0,29.03,North,357,3.1,3.1,63,0.00,,,0.00,VWS V13.01,2013-06-28 07:45:00,
2013-06-28 03:50:00,71.1,57.8,29.03,SW,231,2.7,4.0,63,0.00,,,0.00,VWS V13.01,2013-06-28 07:50:00,
2013-06-28 03:55:00,71.2,58.5,29.03,North,10,0.0,4.0,64,0.00,,,0.00,VWS V13.01,2013-06-28 07:55:00,
2013-06-28 04:00:00,72.0,59.1,29.03,NNW,336,3.6,4.9,64,0.00,,,0.00,VWS V13.01,2013-06-28 08:00:00,
2013-06-28 04:05:00,72.9,60.0,29.03,North,349,2.2,4.0,64,0.00,,,0.00,VWS V13.01,2013-06-28 08:05:00,
2013-06-28 04:10:00,73.6,60.2,29.03,NNW,333,3.6,3.6,63,0.00,,,0.00,VWS V13.01,2013-06-28 08:10:00,
2013-06-28 04:15:00,73.9,59.7,29.00,SW,233,0.0,4.0,61,0.00,,,0.00,VWS V13.01,2013-06-28 08:15:00,
2013-06-28 04:20:00,73.4,58.2,29.00,WNW,294,0.0,2.7,59,0.00,,,0.00,VWS V13.01,2013-06-28 08:20:00,
2013-06-28 04:25:00,72.5,56.9,29.00,WNW,294,0.0,0.0,58,0.00,,,0.00,VWS V13.01,2013-06-28 08:25:00,
2013-06-28 04:30:00,72.5,57.4,29.00,North,3,0.0,3.1,59,0.00,,,0.00,VWS V13.01,2013-06-28 08:30:00,
2013-06-28 04:35:00,72.5,57.4,29.00,North,3,0.0,0.0,59,0.00,,,0.00,VWS V13.01,2013-06-28 08:35:00,
2013-06-28 04:40:00,72.3,56.7,29.00,NNE,20,0.0,0.0,58,0.00,,,0.00,VWS V13.01,2013-06-28 08:40:00,
2013-06-28 04:45:00,72.1,56.1,29.00,NNE,17,0.0,0.0,57,0.00,,,0.00,VWS V13.01,2013-06-28 08:45:00,
2013-06-28 04:50:00,72.3,56.7,29.00,NNW,342,3.6,3.6,58,0.00,,,0.00,VWS V13.01,2013-06-28 08:50:00,
2013-06-28 04:55:00,72.7,57.1,29.00,West,280,2.2,2.7,58,0.00,,,0.00,VWS V13.01,2013-06-28 08:55:00,
2013-06-28 05:00:00,73.0,56.9,29.00,North,350,2.2,2.7,57,0.00,,,0.00,VWS V13.01,2013-06-28 09:00:00,
2013-06-28 05:05:00,73.0,56.4,29.00,NNW,330,0.0,4.0,56,0.00,,,0.00,VWS V13.01,2013-06-28 09:05:00,
2013-06-28 05:10:00,73.2,56.1,29.00,West,266,2.7,2.7,55,0.00,,,0.00,VWS V13.01,2013-06-28 09:10:00,
2013-06-28 05:15:00,73.4,55.2,29.00,SW,218,0.0,2.2,53,0.00,,,0.00,VWS V13.01,2013-06-28 09:15:00,
2013-06-28 05:20:00,73.4,54.2,29.00,NNE,18,3.1,3.1,51,0.00,,,0.00,VWS V13.01,2013-06-28 09:20:00,
2013-06-28 05:25:00,74.3,51.0,29.00,North,353,3.6,3.6,44,0.00,,,0.00,VWS V13.01,2013-06-28 09:25:00,
2013-06-28 05:30:00,74.7,48.8,29.00,North,7,3.1,3.6,40,0.00,,,0.00,VWS V13.01,2013-06-28 09:30:00,
2013-06-28 05:35:00,75.2,46.4,29.00,NNW,328,3.1,4.0,36,0.00,,,0.00,VWS V13.01,2013-06-28 09:35:00,
2013-06-28 05:40:00,75.2,46.4,29.00,North,0,0.0,0.0,36,0.00,,,0.00,VWS V13.01,2013-06-28 09:40:00,
2013-06-28 05:45:00,73.9,46.8,29.00,North,353,6.3,6.3,38,0.00,,,0.00,VWS V13.01,2013-06-28 09:45:00,
2013-06-28 05:50:00,74.1,48.3,29.00,NNW,335,3.1,3.1,40,0.00,,,0.00,VWS V13.01,2013-06-28 09:50:00,
2013-06-28 05:55:00,75.0,47.0,29.00,NNW,345,5.4,5.4,37,0.00,,,0.00,VWS V13.01,2013-06-28 09:55:00,
2013-06-28 06:00:00,75.4,45.1,29.00,NNW,335,3.1,3.1,34,0.00,,,0.00,VWS V13.01,2013-06-28 10:00:00,
2013-06-28 06:05:00,75.7,43.8,29.00,North,4,4.0,6.3,32,0.00,,,0.00,VWS V13.01,2013-06-28 10:05:00,
2013-06-28 06:10:00,75.9,44.0,29.00,NNW,343,4.0,5.8,32,0.00,,,0.00,VWS V13.01,2013-06-28 10:10:00,
2013-06-28 06:15:00,75.9,44.0,29.00,NNW,335,2.7,4.0,32,0.00,,,0.00,VWS V13.01,2013-06-28 10:15:00,
2013-06-28 06:20:00,75.9,44.0,29.00,NNW,327,3.6,4.5,32,0.00,,,0.00,VWS V13.01,2013-06-28 10:20:00,
2013-06-28 06:25:00,75.7,43.8,29.00,NNW,327,4.9,4.9,32,0.00,,,0.00,VWS V13.01,2013-06-28 10:25:00,
2013-06-28 06:30:00,75.7,43.8,29.00,NW,326,5.4,5.4,32,0.00,,,0.00,VWS V13.01,2013-06-28 10:30:00,
2013-06-28 06:35:00,75.7,43.8,29.00,NNW,335,4.0,4.9,32,0.00,,,0.00,VWS V13.01,2013-06-28 10:35:00,
2013-06-28 06:40:00,75.6,43.7,29.00,NW,320,3.6,4.0,32,0.00,,,0.00,VWS V13.01,2013-06-28 10:40:00,
2013-06-28 06:45:00,75.6,43.7,29.00,NW,321,3.1,4.9,32,0.00,,,0.00,VWS V13.01,2013-06-28 10:45:00,
2013-06-28 06:50:00,75.6,43.7,29.00,NW,323,3.6,5.4,32,0.00,,,0.00,VWS V13.01,2013-06-28 10:50:00,
2013-06-28 06:55:00,75.4,43.5,29.00,NNW,340,4.0,4.9,32,0.00,,,0.00,VWS V13.01,2013-06-28 10:55:00,
2013-06-28 07:00:00,75.2,43.3,29.00,NNW,333,2.7,5.8,32,0.00,,,0.00,VWS V13.01,2013-06-28 11:00:00,
2013-06-28 07:05:00,75.2,43.3,29.00,NW,310,4.0,4.0,32,0.00,,,0.00,VWS V13.01,2013-06-28 11:05:00,
2013-06-28 07:10:00,75.4,43.5,29.00,NNW,332,2.7,2.7,32,0.00,,,0.00,VWS V13.01,2013-06-28 11:10:00,
2013-06-28 07:15:00,75.4,43.5,29.00,NNW,342,3.6,3.6,32,0.00,,,0.00,VWS V13.01,2013-06-28 11:15:00,
2013-06-28 07:20:00,75.4,44.3,29.00,NW,324,3.6,3.6,33,0.00,,,0.00,VWS V13.01,2013-06-28 11:20:00,
2013-06-28 07:25:00,75.4,44.3,29.00,WNW,290,3.1,3.1,33,0.00,,,0.00,VWS V13.01,2013-06-28 11:25:00,
2013-06-28 07:30:00,75.6,44.5,29.00,NW,318,2.7,3.1,33,0.00,,,0.00,VWS V13.01,2013-06-28 11:30:00,
2013-06-28 07:35:00,75.6,43.7,29.00,North,353,3.6,4.0,32,0.00,,,0.00,VWS V13.01,2013-06-28 11:35:00,
2013-06-28 07:40:00,75.6,44.5,29.00,WNW,303,3.6,3.6,33,0.00,,,0.00,VWS V13.01,2013-06-28 11:40:00,
2013-06-28 07:45:00,75.7,43.8,29.00,NW,305,4.9,4.9,32,0.00,,,0.00,VWS V13.01,2013-06-28 11:45:00,
2013-06-28 07:50:00,75.9,44.0,29.00,NNW,329,5.8,5.8,32,0.00,,,0.00,VWS V13.01,2013-06-28 11:50:00,
2013-06-28 07:55:00,75.9,44.8,29.00,NW,307,4.9,4.9,33,0.00,,,0.00,VWS V13.01,2013-06-28 11:55:00,
2013-06-28 08:00:00,76.1,44.1,29.00,West,280,2.2,4.0,32,0.00,,,0.00,VWS V13.01,2013-06-28 12:00:00,
2013-06-28 08:05:00,76.5,44.4,29.00,NW,309,2.7,3.6,32,0.00,,,0.00,VWS V13.01,2013-06-28 12:05:00,
2013-06-28 08:10:00,76.8,43.9,29.00,North,357,2.2,3.6,31,0.00,,,0.00,VWS V13.01,2013-06-28 12:10:00,
2013-06-28 08:15:00,77.2,43.4,29.00,WNW,283,2.2,5.4,30,0.00,,,0.00,VWS V13.01,2013-06-28 12:15:00,
2013-06-28 08:20:00,77.4,42.7,29.00,NNW,328,5.4,8.3,29,0.00,,,0.00,VWS V13.01,2013-06-28 12:20:00,
2013-06-28 08:25:00,77.5,42.8,29.00,North,353,2.7,4.9,29,0.00,,,0.00,VWS V13.01,2013-06-28 12:25:00,
2013-06-28 08:30:00,77.5,42.8,29.00,WNW,286,4.0,5.8,29,0.00,,,0.00,VWS V13.01,2013-06-28 12:30:00,
2013-06-28 08:35:00,77.7,42.0,29.00,WSW,238,5.4,5.4,28,0.00,,,0.00,VWS V13.01,2013-06-28 12:35:00,
2013-06-28 08:40:00,77.9,41.3,29.00,WNW,297,5.4,5.4,27,0.00,,,0.00,VWS V13.01,2013-06-28 12:40:00,
2013-06-28 08:45:00,78.1,40.4,29.00,West,280,3.6,3.6,26,0.00,,,0.00,VWS V13.01,2013-06-28 12:45:00,
2013-06-28 08:50:00,78.1,40.4,29.00,North,8,0.0,2.2,26,0.00,,,0.00,VWS V13.01,2013-06-28 12:50:00,
2013-06-28 08:55:00,78.3,40.6,29.00,NNW,341,3.1,4.0,26,0.00,,,0.00,VWS V13.01,2013-06-28 12:55:00,
2013-06-28 09:00:00,78.6,40.9,29.00,WNW,288,3.1,3.1,26,0.00,,,0.00,VWS V13.01,2013-06-28 13:00:00,
2013-06-28 09:05:00,78.8,37.9,29.00,WNW,297,2.2,5.8,23,0.00,,,0.00,VWS V13.01,2013-06-28 13:05:00,
2013-06-28 09:10:00,78.8,37.9,29.00,WSW,254,5.8,7.2,23,0.00,,,0.00,VWS V13.01,2013-06-28 13:10:00,
2013-06-28 09:15:00,78.8,36.8,29.00,WNW,294,5.8,8.7,22,0.00,,,0.00,VWS V13.01,2013-06-28 13:15:00,
2013-06-28 09:20:00,79.0,38.1,29.00,WSW,246,0.0,3.6,23,0.00,,,0.00,VWS V13.01,2013-06-28 13:20:00,
2013-06-28 09:25:00,79.3,38.4,29.00,SW,219,3.6,6.3,23,0.00,,,0.00,VWS V13.01,2013-06-28 13:25:00,
2013-06-28 09:30:00,79.7,37.5,29.00,NW,306,8.3,8.3,22,0.00,,,0.00,VWS V13.01,2013-06-28 13:30:00,
2013-06-28 09:35:00,79.9,36.5,29.00,West,261,3.6,7.2,21,0.00,,,0.00,VWS V13.01,2013-06-28 13:35:00,
2013-06-28 09:40:00,79.9,36.5,29.00,WSW,240,5.8,5.8,21,0.00,,,0.00,VWS V13.01,2013-06-28 13:40:00,
2013-06-28 09:45:00,79.9,36.5,29.00,WSW,249,2.7,6.3,21,0.00,,,0.00,VWS V13.01,2013-06-28 13:45:00,
2013-06-28 09:50:00,80.2,36.8,29.00,WNW,292,2.7,4.0,21,0.00,,,0.00,VWS V13.01,2013-06-28 13:50:00,
2013-06-28 09:55:00,80.4,37.0,29.00,NNW,331,4.0,5.4,21,0.00,,,0.00,VWS V13.01,2013-06-28 13:55:00,
2013-06-28 10:00:00,80.4,35.7,29.00,WNW,297,5.8,6.3,20,0.00,,,0.00,VWS V13.01,2013-06-28 14:00:00,
2013-06-28 10:05:00,80.1,35.4,29.00,WNW,302,10.5,10.5,20,0.00,,,0.00,VWS V13.01,2013-06-28 14:05:00,
2013-06-28 10:10:00,79.9,35.3,29.00,West,270,3.6,7.6,20,0.00,,,0.00,VWS V13.01,2013-06-28 14:10:00,
2013-06-28 10:15:00,79.7,36.3,29.00,WNW,298,3.6,3.6,21,0.00,,,0.00,VWS V13.01,2013-06-28 14:15:00,
2013-06-28 10:20:00,79.9,36.5,29.00,West,270,0.0,3.1,21,0.00,,,0.00,VWS V13.01,2013-06-28 14:20:00,
2013-06-28 10:25:00,80.1,36.7,29.00,North,353,3.6,3.6,21,0.00,,,0.00,VWS V13.01,2013-06-28 14:25:00,
2013-06-28 10:30:00,80.2,35.6,28.97,NW,308,2.7,5.8,20,0.00,,,0.00,VWS V13.01,2013-06-28 14:30:00,
2013-06-28 10:35:00,80.4,35.7,28.97,WNW,302,6.3,6.3,20,0.00,,,0.00,VWS V13.01,2013-06-28 14:35:00,
2013-06-28 10:40:00,80.6,35.9,28.97,North,349,3.6,3.6,20,0.00,,,0.00,VWS V13.01,2013-06-28 14:40:00,
2013-06-28 10:45:00,80.6,35.9,29.00,West,270,6.3,9.6,20,0.00,,,0.00,VWS V13.01,2013-06-28 14:45:00,
2013-06-28 10:50:00,80.8,34.7,29.00,WSW,238,5.8,6.3,19,0.00,,,0.00,VWS V13.01,2013-06-28 14:50:00,
2013-06-28 10:55:00,81.0,36.2,29.00,NW,318,6.3,6.3,20,0.00,,,0.00,VWS V13.01,2013-06-28 14:55:00,
2013-06-28 11:00:00,81.1,36.3,29.00,WSW,244,4.0,5.4,20,0.00,,,0.00,VWS V13.01,2013-06-28 15:00:00,
2013-06-28 11:05:00,81.1,35.0,29.00,NW,310,6.7,7.6,19,0.00,,,0.00,VWS V13.01,2013-06-28 15:05:00,
2013-06-28 11:10:00,81.1,32.2,29.00,WNW,302,3.6,8.7,17,0.00,,,0.00,VWS V13.01,2013-06-28 15:10:00,
2013-06-28 11:15:00,81.1,32.2,29.00,SW,230,7.6,7.6,17,0.00,,,0.00,VWS V13.01,2013-06-28 15:15:00,
2013-06-28 11:20:00,81.5,35.3,29.00,WSW,250,4.0,4.0,19,0.00,,,0.00,VWS V13.01,2013-06-28 15:20:00,
2013-06-28 11:25:00,81.9,32.8,29.00,West,274,2.7,7.6,17,0.00,,,0.00,VWS V13.01,2013-06-28 15:25:00,
2013-06-28 11:30:00,81.9,28.0,29.00,NW,305,8.3,8.3,14,0.00,,,0.00,VWS V13.01,2013-06-28 15:30:00,
2013-06-28 11:35:00,82.4,28.5,29.00,West,278,5.8,5.8,14,0.00,,,0.00,VWS V13.01,2013-06-28 15:35:00,
2013-06-28 11:40:00,82.6,28.6,29.00,NNW,336,3.1,8.1,14,0.00,,,0.00,VWS V13.01,2013-06-28 15:40:00,
2013-06-28 11:45:00,82.8,28.8,29.00,WNW,303,3.6,7.6,14,0.00,,,0.00,VWS V13.01,2013-06-28 15:45:00,
2013-06-28 11:50:00,82.9,28.9,29.00,SSE,151,2.2,4.0,14,0.00,,,0.00,VWS V13.01,2013-06-28 15:50:00,
2013-06-28 11:55:00,83.3,23.4,29.00,WNW,285,8.3,8.3,11,0.00,,,0.00,VWS V13.01,2013-06-28 15:55:00,
2013-06-28 12:00:00,83.3,23.4,29.00,WSW,245,9.2,9.2,11,0.00,,,0.00,VWS V13.01,2013-06-28 16:00:00,
2013-06-28 12:05:00,83.3,23.4,29.00,NW,305,5.4,10.1,11,0.00,,,0.00,VWS V13.01,2013-06-28 16:05:00,
2013-06-28 12:10:00,83.3,23.4,29.00,West,275,4.0,8.1,11,0.00,,,0.00,VWS V13.01,2013-06-28 16:10:00,
2013-06-28 12:15:00,83.5,23.5,29.00,WNW,288,5.4,7.2,11,0.00,,,0.00,VWS V13.01,2013-06-28 16:15:00,
2013-06-28 12:20:00,83.7,23.6,29.00,NW,321,8.1,8.1,11,0.00,,,0.00,VWS V13.01,2013-06-28 16:20:00,
2013-06-28 12:25:00,83.7,23.6,29.00,SSW,196,5.8,8.1,11,0.00,,,0.00,VWS V13.01,2013-06-28 16:25:00,
2013-06-28 12:30:00,83.7,23.6,29.00,West,278,4.0,10.5,11,0.00,,,0.00,VWS V13.01,2013-06-28 16:30:00,
2013-06-28 12:35:00,83.8,23.8,29.00,WSW,249,6.7,7.6,11,0.00,,,0.00,VWS V13.01,2013-06-28 16:35:00,
2013-06-28 12:40:00,84.0,23.9,29.00,WNW,289,2.7,2.7,11,0.00,,,0.00,VWS V13.01,2013-06-28 16:40:00,
2013-06-28 12:45:00,84.0,23.9,29.00,NNW,339,5.4,5.4,11,0.00,,,0.00,VWS V13.01,2013-06-28 16:45:00,
2013-06-28 12:50:00,83.8,23.8,29.00,NW,319,5.4,9.2,11,0.00,,,0.00,VWS V13.01,2013-06-28 16:50:00,
2013-06-28 12:56:00,83.7,23.6,29.00,WNW,298,4.9,8.3,11,0.00,,,0.00,VWS V13.01,2013-06-28 16:56:00,
2013-06-28 13:01:00,83.7,23.6,29.00,NW,305,3.1,7.6,11,0.00,,,0.00,VWS V13.01,2013-06-28 17:01:00,
2013-06-28 13:06:00,83.7,18.9,29.00,West,262,4.0,10.1,9,0.00,,,0.00,VWS V13.01,2013-06-28 17:06:00,
2013-06-28 13:11:00,84.0,19.2,29.00,WNW,283,5.8,7.6,9,0.00,,,0.00,VWS V13.01,2013-06-28 17:11:00,
2013-06-28 13:16:00,84.4,16.7,28.97,WSW,244,8.7,8.7,8,0.00,,,0.00,VWS V13.01,2013-06-28 17:16:00,
2013-06-28 13:21:00,84.7,24.5,28.97,NW,310,3.6,6.3,11,0.00,,,0.00,VWS V13.01,2013-06-28 17:21:00,
2013-06-28 13:26:00,84.9,17.1,28.97,NW,305,5.4,8.7,8,0.00,,,0.00,VWS V13.01,2013-06-28 17:26:00,
2013-06-28 13:31:00,84.7,17.0,28.97,NNW,342,12.8,12.8,8,0.00,,,0.00,VWS V13.01,2013-06-28 17:31:00,
2013-06-28 13:36:00,84.2,16.6,28.97,NW,318,10.1,11.0,8,0.00,,,0.00,VWS V13.01,2013-06-28 17:36:00,
2013-06-28 13:41:00,84.4,16.7,28.97,West,281,6.3,6.3,8,0.00,,,0.00,VWS V13.01,2013-06-28 17:41:00,
2013-06-28 13:46:00,84.6,16.9,28.97,West,271,8.1,8.7,8,0.00,,,0.00,VWS V13.01,2013-06-28 17:46:00,
2013-06-28 13:51:00,84.7,17.0,28.97,West,273,5.4,7.6,8,0.00,,,0.00,VWS V13.01,2013-06-28 17:51:00,
2013-06-28 13:56:00,85.3,17.4,28.97,NW,310,10.1,11.0,8,0.00,,,0.00,VWS V13.01,2013-06-28 17:56:00,
2013-06-28 14:01:00,84.9,17.1,28.97,NW,314,4.0,6.3,8,0.00,,,0.00,VWS V13.01,2013-06-28 18:01:00,
2013-06-28 14:06:00,84.9,17.1,28.97,WSW,253,5.4,5.8,8,0.00,,,0.00,VWS V13.01,2013-06-28 18:06:00,
2013-06-28 14:11:00,85.1,17.2,28.97,WSW,248,2.7,5.4,8,0.00,,,0.00,VWS V13.01,2013-06-28 18:11:00,
2013-06-28 14:16:00,85.1,17.2,28.97,West,269,8.3,8.3,8,0.00,,,0.00,VWS V13.01,2013-06-28 18:16:00,
2013-06-28 14:21:00,85.1,17.2,28.97,NW,325,8.1,8.7,8,0.00,,,0.00,VWS V13.01,2013-06-28 18:21:00,
2013-06-28 14:26:00,85.8,17.8,28.97,WSW,240,4.0,8.3,8,0.00,,,0.00,VWS V13.01,2013-06-28 18:26:00,
2013-06-28 14:31:00,85.6,17.6,28.97,NW,326,8.3,8.3,8,0.00,,,0.00,VWS V13.01,2013-06-28 18:31:00,
2013-06-28 14:36:00,85.3,17.4,28.97,WSW,244,5.8,8.1,8,0.00,,,0.00,VWS V13.01,2013-06-28 18:36:00,
2013-06-28 14:41:00,85.1,17.2,28.97,WNW,288,5.4,8.3,8,0.00,,,0.00,VWS V13.01,2013-06-28 18:41:00,
2013-06-28 14:46:00,85.3,17.4,28.94,WNW,293,5.4,11.0,8,0.00,,,0.00,VWS V13.01,2013-06-28 18:46:00,
2013-06-28 14:51:00,84.9,17.1,28.94,NW,304,8.7,8.7,8,0.00,,,0.00,VWS V13.01,2013-06-28 18:51:00,
2013-06-28 14:56:00,85.1,17.2,28.94,NW,317,3.1,5.8,8,0.00,,,0.00,VWS V13.01,2013-06-28 18:56:00,
2013-06-28 15:01:00,86.0,17.9,28.94,WNW,301,7.6,12.3,8,0.00,,,0.00,VWS V13.01,2013-06-28 19:01:00,
2013-06-28 15:06:00,86.2,18.0,28.94,NW,308,10.5,13.2,8,0.00,,,0.00,VWS V13.01,2013-06-28 19:06:00,
2013-06-28 15:11:00,86.2,18.0,28.94,NW,310,4.0,13.2,8,0.00,,,0.00,VWS V13.01,2013-06-28 19:11:00,
2013-06-28 15:16:00,86.5,18.3,28.94,West,280,4.0,8.3,8,0.00,,,0.00,VWS V13.01,2013-06-28 19:16:00,
2013-06-28 15:21:00,86.5,18.3,28.94,SW,231,8.1,8.1,8,0.00,,,0.00,VWS V13.01,2013-06-28 19:21:00,
2013-06-28 15:26:00,86.5,18.3,28.94,WNW,299,7.2,7.2,8,0.00,,,0.00,VWS V13.01,2013-06-28 19:26:00,
2013-06-28 15:31:00,86.2,18.0,28.94,West,274,3.6,5.8,8,0.00,,,0.00,VWS V13.01,2013-06-28 19:31:00,
2013-06-28 15:36:00,85.6,17.6,28.94,NNW,340,4.0,8.7,8,0.00,,,0.00,VWS V13.01,2013-06-28 19:36:00,
2013-06-28 15:41:00,85.8,17.8,28.94,WNW,292,4.0,7.6,8,0.00,,,0.00,VWS V13.01,2013-06-28 19:41:00,
2013-06-28 15:46:00,86.4,18.2,28.91,WSW,248,2.7,5.4,8,0.00,,,0.00,VWS V13.01,2013-06-28 19:46:00,
2013-06-28 15:51:00,86.2,18.0,28.91,North,353,3.6,5.4,8,0.00,,,0.00,VWS V13.01,2013-06-28 19:51:00,
2013-06-28 15:56:00,86.5,18.3,28.91,NW,319,5.4,8.1,8,0.00,,,0.00,VWS V13.01,2013-06-28 19:56:00,
2013-06-28 16:01:00,86.4,18.2,28.91,WSW,254,5.4,8.1,8,0.00,,,0.00,VWS V13.01,2013-06-28 20:01:00,
2013-06-28 16:06:00,86.0,17.9,28.91,NNW,330,3.1,5.4,8,0.00,,,0.00,VWS V13.01,2013-06-28 20:06:00,
2013-06-28 16:11:00,86.7,18.5,28.91,WNW,303,10.5,10.5,8,0.00,,,0.00,VWS V13.01,2013-06-28 20:11:00,
2013-06-28 16:16:00,86.9,18.6,28.91,West,276,3.6,8.7,8,0.00,,,0.00,VWS V13.01,2013-06-28 20:16:00,
2013-06-28 16:21:00,86.7,18.5,28.91,WNW,291,5.8,5.8,8,0.00,,,0.00,VWS V13.01,2013-06-28 20:21:00,
2013-06-28 16:26:00,86.4,18.2,28.91,North,11,8.1,9.2,8,0.00,,,0.00,VWS V13.01,2013-06-28 20:26:00,
2013-06-28 16:31:00,86.5,18.3,28.91,WNW,298,4.9,8.7,8,0.00,,,0.00,VWS V13.01,2013-06-28 20:31:00,
2013-06-28 16:36:00,86.4,18.2,28.91,SW,230,6.3,6.3,8,0.00,,,0.00,VWS V13.01,2013-06-28 20:36:00,
2013-06-28 16:41:00,86.7,18.5,28.91,WSW,240,5.8,5.8,8,0.00,,,0.00,VWS V13.01,2013-06-28 20:41:00,
2013-06-28 16:46:00,86.9,18.6,28.91,WNW,291,8.3,12.3,8,0.00,,,0.00,VWS V13.01,2013-06-28 20:46:00,
2013-06-28 16:51:00,87.1,18.7,28.91,WNW,297,4.0,8.1,8,0.00,,,0.00,VWS V13.01,2013-06-28 20:51:00,
2013-06-28 16:56:00,87.3,18.9,28.91,SW,221,3.1,8.1,8,0.00,,,0.00,VWS V13.01,2013-06-28 20:56:00,
2013-06-28 17:01:00,87.6,19.1,28.91,WNW,283,7.6,8.1,8,0.00,,,0.00,VWS V13.01,2013-06-28 21:01:00,
2013-06-28 17:06:00,86.9,18.6,28.91,North,353,5.4,12.3,8,0.00,,,0.00,VWS V13.01,2013-06-28 21:06:00,
2013-06-28 17:11:00,85.8,17.8,28.91,NNW,328,3.6,8.3,8,0.00,,,0.00,VWS V13.01,2013-06-28 21:11:00,
2013-06-28 17:16:00,85.5,17.5,28.91,NNW,338,4.9,7.2,8,0.00,,,0.00,VWS V13.01,2013-06-28 21:16:00,
2013-06-28 17:21:00,85.1,17.2,28.91,WNW,303,6.3,6.3,8,0.00,,,0.00,VWS V13.01,2013-06-28 21:21:00,
2013-06-28 17:26:00,84.7,17.0,28.91,NW,311,2.7,5.4,8,0.00,,,0.00,VWS V13.01,2013-06-28 21:26:00,
2013-06-28 17:31:00,84.4,16.7,28.91,WNW,289,5.8,5.8,8,0.00,,,0.00,VWS V13.01,2013-06-28 21:31:00,
2013-06-28 17:36:00,84.4,16.7,28.91,NW,313,2.7,8.1,8,0.00,,,0.00,VWS V13.01,2013-06-28 21:36:00,
2013-06-28 17:41:00,85.1,17.2,28.91,WNW,289,9.6,9.6,8,0.00,,,0.00,VWS V13.01,2013-06-28 21:41:00,
2013-06-28 17:46:00,85.8,17.8,28.91,West,264,4.9,5.8,8,0.00,,,0.00,VWS V13.01,2013-06-28 21:46:00,
2013-06-28 17:51:00,86.4,18.2,28.91,WNW,295,3.6,4.9,8,0.00,,,0.00,VWS V13.01,2013-06-28 21:51:00,
2013-06-28 17:56:00,86.9,18.6,28.91,WNW,292,5.4,5.8,8,0.00,,,0.00,VWS V13.01,2013-06-28 21:56:00,
2013-06-28 18:01:00,86.9,18.6,28.91,West,277,5.8,15.4,8,0.00,,,0.00,VWS V13.01,2013-06-28 22:01:00,
2013-06-28 18:06:00,86.5,18.3,28.91,NNW,330,5.8,7.6,8,0.00,,,0.00,VWS V13.01,2013-06-28 22:06:00,
2013-06-28 18:11:00,86.9,18.6,28.91,NNW,344,2.7,3.6,8,0.00,,,0.00,VWS V13.01,2013-06-28 22:11:00,
2013-06-28 18:16:00,87.1,18.7,28.88,NNW,327,8.1,12.3,8,0.00,,,0.00,VWS V13.01,2013-06-28 22:16:00,
2013-06-28 18:21:00,86.7,18.5,28.88,WNW,292,5.4,8.3,8,0.00,,,0.00,VWS V13.01,2013-06-28 22:21:00,
2013-06-28 18:26:00,86.7,18.5,28.88,WNW,298,8.3,8.3,8,0.00,,,0.00,VWS V13.01,2013-06-28 22:26:00,
2013-06-28 18:31:00,86.5,18.3,28.88,NW,314,8.7,8.7,8,0.00,,,0.00,VWS V13.01,2013-06-28 22:31:00,
2013-06-28 18:36:00,86.4,18.2,28.88,West,274,5.4,9.6,8,0.00,,,0.00,VWS V13.01,2013-06-28 22:36:00,
2013-06-28 18:41:00,86.4,18.2,28.88,NW,321,5.4,6.3,8,0.00,,,0.00,VWS V13.01,2013-06-28 22:41:00,
2013-06-28 18:46:00,86.4,18.2,28.91,West,280,3.6,8.7,8,0.00,,,0.00,VWS V13.01,2013-06-28 22:46:00,
2013-06-28 18:51:00,86.4,18.2,28.91,WNW,295,4.0,8.7,8,0.00,,,0.00,VWS V13.01,2013-06-28 22:51:00,
2013-06-28 18:56:00,86.4,18.2,28.91,West,261,7.6,8.7,8,0.00,,,0.00,VWS V13.01,2013-06-28 22:56:00,
2013-06-28 19:01:00,86.5,18.3,28.91,WNW,290,3.1,7.2,8,0.00,,,0.00,VWS V13.01,2013-06-28 23:01:00,
2013-06-28 19:06:00,86.4,18.2,28.91,WNW,290,5.4,5.8,8,0.00,,,0.00,VWS V13.01,2013-06-28 23:06:00,
2013-06-28 19:11:00,86.2,18.0,28.91,NW,321,6.3,10.1,8,0.00,,,0.00,VWS V13.01,2013-06-28 23:11:00,
2013-06-28 19:16:00,86.0,17.9,28.88,NW,321,4.5,7.6,8,0.00,,,0.00,VWS V13.01,2013-06-28 23:16:00,
2013-06-28 19:21:00,85.8,17.8,28.88,WNW,299,3.6,8.3,8,0.00,,,0.00,VWS V13.01,2013-06-28 23:21:00,
2013-06-28 19:26:00,85.6,17.6,28.88,West,281,5.4,6.3,8,0.00,,,0.00,VWS V13.01,2013-06-28 23:26:00,
2013-06-28 19:31:00,85.6,17.6,28.91,WNW,282,8.1,8.1,8,0.00,,,0.00,VWS V13.01,2013-06-28 23:31:00,
2013-06-28 19:36:00,85.5,17.5,28.91,NW,316,6.3,8.3,8,0.00,,,0.00,VWS V13.01,2013-06-28 23:36:00,
2013-06-28 19:41:00,85.3,17.4,28.91,NNW,340,2.7,5.4,8,0.00,,,0.00,VWS V13.01,2013-06-28 23:41:00,
2013-06-28 19:46:00,85.3,17.4,28.91,NNW,332,2.7,2.7,8,0.00,,,0.00,VWS V13.01,2013-06-28 23:46:00,
2013-06-28 19:51:00,85.5,17.5,28.91,SW,226,0.0,2.2,8,0.00,,,0.00,VWS V13.01,2013-06-28 23:51:00,
2013-06-28 19:56:00,85.5,17.5,28.91,WNW,286,0.0,0.0,8,0.00,,,0.00,VWS V13.01,2013-06-28 23:56:00,
2013-06-28 20:01:00,85.3,17.4,28.91,NW,314,2.7,2.7,8,0.00,,,0.00,VWS V13.01,2013-06-29 00:01:00,
2013-06-28 20:06:00,84.9,17.1,28.91,WNW,293,2.7,3.1,8,0.00,,,0.00,VWS V13.01,2013-06-29 00:06:00,
2013-06-28 20:11:00,84.7,17.0,28.91,WNW,303,0.0,3.1,8,0.00,,,0.00,VWS V13.01,2013-06-29 00:11:00,
2013-06-28 20:16:00,84.4,16.7,28.91,NW,308,0.0,0.0,8,0.00,,,0.00,VWS V13.01,2013-06-29 00:16:00,
2013-06-28 20:21:00,83.8,19.0,28.91,NW,313,0.0,0.0,9,0.00,,,0.00,VWS V13.01,2013-06-29 00:21:00,
2013-06-28 20:26:00,82.8,18.2,28.91,NW,324,0.0,3.1,9,0.00,,,0.00,VWS V13.01,2013-06-29 00:26:00,
2013-06-28 20:31:00,81.3,17.1,28.91,NNW,340,0.0,0.0,9,0.00,,,0.00,VWS V13.01,2013-06-29 00:31:00,
2013-06-28 20:36:00,80.2,18.8,28.91,NNW,346,0.0,2.2,10,0.00,,,0.00,VWS V13.01,2013-06-29 00:36:00,
2013-06-28 20:41:00,79.2,18.0,28.91,NNW,346,0.0,0.0,10,0.00,,,0.00,VWS V13.01,2013-06-29 00:41:00,
2013-06-28 20:46:00,78.4,17.4,28.91,NNW,346,0.0,0.0,10,0.00,,,0.00,VWS V13.01,2013-06-29 00:46:00,
2013-06-28 20:51:00,78.1,17.1,28.91,NNW,346,0.0,0.0,10,0.00,,,0.00,VWS V13.01,2013-06-29 00:51:00,
2013-06-28 20:56:00,77.7,16.9,28.91,NNW,346,0.0,0.0,10,0.00,,,0.00,VWS V13.01,2013-06-29 00:56:00,
2013-06-28 21:01:00,77.4,16.6,28.91,NNW,346,0.0,0.0,10,0.00,,,0.00,VWS V13.01,2013-06-29 01:01:00,
2013-06-28 21:06:00,77.0,16.3,28.91,NNW,346,0.0,0.0,10,0.00,,,0.00,VWS V13.01,2013-06-29 01:06:00,
2013-06-28 21:11:00,76.6,16.0,28.91,NNW,346,0.0,0.0,10,0.00,,,0.00,VWS V13.01,2013-06-29 01:11:00,
2013-06-28 21:16:00,76.6,16.0,28.91,NNW,346,0.0,0.0,10,0.00,,,0.00,VWS V13.01,2013-06-29 01:16:00,
2013-06-28 21:21:00,76.5,15.9,28.91,NNW,346,0.0,0.0,10,0.00,,,0.00,VWS V13.01,2013-06-29 01:21:00,
2013-06-28 21:26:00,76.3,21.9,28.91,NNW,346,0.0,0.0,13,0.00,,,0.00,VWS V13.01,2013-06-29 01:26:00,
2013-06-28 21:31:00,76.3,21.9,28.91,NNW,346,0.0,0.0,13,0.00,,,0.00,VWS V13.01,2013-06-29 01:31:00,
2013-06-28 21:36:00,76.1,21.7,28.91,NNW,346,0.0,0.0,13,0.00,,,0.00,VWS V13.01,2013-06-29 01:36:00,
2013-06-28 21:41:00,75.7,24.9,28.91,NNW,346,0.0,0.0,15,0.00,,,0.00,VWS V13.01,2013-06-29 01:41:00,
2013-06-28 21:46:00,75.6,24.7,28.91,NNW,346,0.0,0.0,15,0.00,,,0.00,VWS V13.01,2013-06-29 01:46:00,
2013-06-28 21:51:00,75.2,24.4,28.91,NNW,346,0.0,0.0,15,0.00,,,0.00,VWS V13.01,2013-06-29 01:51:00,
2013-06-28 21:56:00,74.7,28.4,28.91,NNW,346,0.0,0.0,18,0.00,,,0.00,VWS V13.01,2013-06-29 01:56:00,
2013-06-28 22:01:00,74.5,33.2,28.91,NNW,346,0.0,0.0,22,0.00,,,0.00,VWS V13.01,2013-06-29 02:01:00,
2013-06-28 22:06:00,73.9,33.8,28.91,NNW,346,0.0,0.0,23,0.00,,,0.00,VWS V13.01,2013-06-29 02:06:00,
2013-06-28 22:11:00,73.6,33.5,28.91,NNW,346,0.0,0.0,23,0.00,,,0.00,VWS V13.01,2013-06-29 02:11:00,
2013-06-28 22:16:00,73.4,33.4,28.94,WNW,289,0.0,0.0,23,0.00,,,0.00,VWS V13.01,2013-06-29 02:16:00,
2013-06-28 22:21:00,73.2,35.3,28.94,NNW,337,0.0,0.0,25,0.00,,,0.00,VWS V13.01,2013-06-29 02:21:00,
2013-06-28 22:26:00,73.2,35.3,28.94,NNW,337,0.0,0.0,25,0.00,,,0.00,VWS V13.01,2013-06-29 02:26:00,
2013-06-28 22:31:00,73.0,38.0,28.94,WNW,294,4.0,4.0,28,0.00,,,0.00,VWS V13.01,2013-06-29 02:31:00,
2013-06-28 22:36:00,72.9,41.3,28.94,NW,320,4.0,4.9,32,0.00,,,0.00,VWS V13.01,2013-06-29 02:36:00,
2013-06-28 22:41:00,72.3,41.6,28.97,NNE,21,0.0,3.6,33,0.00,,,0.00,VWS V13.01,2013-06-29 02:41:00,
2013-06-28 22:46:00,72.1,42.2,28.97,SE,138,0.0,3.1,34,0.00,,,0.00,VWS V13.01,2013-06-29 02:46:00,
2013-06-28 22:51:00,71.6,42.5,28.97,NNE,22,0.0,0.0,35,0.00,,,0.00,VWS V13.01,2013-06-29 02:51:00,
2013-06-28 22:56:00,70.9,46.0,28.97,NE,44,0.0,2.7,41,0.00,,,0.00,VWS V13.01,2013-06-29 02:56:00,
2013-06-28 23:01:00,70.5,47.0,28.97,NW,311,3.1,3.6,43,0.00,,,0.00,VWS V13.01,2013-06-29 03:01:00,
2013-06-28 23:06:00,70.3,48.0,28.97,NNW,332,3.6,4.0,45,0.00,,,0.00,VWS V13.01,2013-06-29 03:06:00,
2013-06-28 23:11:00,70.2,47.2,28.97,North,353,0.0,2.2,44,0.00,,,0.00,VWS V13.01,2013-06-29 03:11:00,
2013-06-28 23:16:00,70.0,45.9,28.97,North,353,0.0,0.0,42,0.00,,,0.00,VWS V13.01,2013-06-29 03:16:00,
2013-06-28 23:21:00,69.8,43.8,28.97,NE,50,2.7,2.7,39,0.00,,,0.00,VWS V13.01,2013-06-29 03:21:00,
2013-06-28 23:26:00,69.8,40.9,28.94,ENE,61,0.0,2.2,35,0.00,,,0.00,VWS V13.01,2013-06-29 03:26:00,
2013-06-28 23:31:00,69.4,44.1,28.94,East,91,4.0,4.9,40,0.00,,,0.00,VWS V13.01,2013-06-29 03:31:00,
2013-06-28 23:36:00,69.1,43.8,28.94,SE,133,2.7,3.6,40,0.00,,,0.00,VWS V13.01,2013-06-29 03:36:00,
2013-06-28 23:41:00,68.7,44.7,28.94,ENE,62,0.0,4.0,42,0.00,,,0.00,VWS V13.01,2013-06-29 03:41:00,
2013-06-28 23:46:00,68.5,44.6,28.94,ENE,58,0.0,0.0,42,0.00,,,0.00,VWS V13.01,2013-06-29 03:46:00,
2013-06-28 23:51:00,68.4,44.4,28.94,ENE,58,0.0,0.0,42,0.00,,,0.00,VWS V13.01,2013-06-29 03:51:00,
2013-06-28 23:56:00,67.8,44.5,28.94,ENE,58,0.0,0.0,43,0.00,,,0.00,VWS V13.01,2013-06-29 03:56:00,